SL-14 R/B (21820 NORAD) Tracking and Keplerian Element Data

This shows tracking and keplerian element data for the satellite.

Feedback or suggestion? Click here.




ElementValue
Catalog21820
NameSL-14 R/B
Epoch Orbit15395
Epoch Day198.64583044
Epoch Year2018
RAAN245.1724
Inclination82.5587
Eccentricity0.1576952
Argument of Perigee168.7491
Mean Anonmoly195.3688
Mean Motion11.9339026
Decay Rate7.5E-07
L11 21820U 91086B 18198.64583044 .00000075 00000-0 97783-5 0 9999
L22 21820 82.5587 245.1724 1576952 168.7491 195.3688 11.93390260153953

Live tracking and technical data element details for SL-14 R/B (NORAD 21820). SL-14 R/B can be tracked NOW for your location showing map with azimuth and elevation plus other details from your city location.

Track the satellite on the map from your city or location and see movement details for azimuth, elevation, latitude, longitude, range, height, and movement on the map or in text.







IsCatalogInMostPopularTable: catalog: 21820, numindb: 22
Update: records affected: 1



GetName: 21820 SL-14 R/B

Hit Count: updated at: Thu, 19 Jul 2018 03:48:42 GMT